Location: Novokuznetsk
(53.7500°N, 87.1000°E)
Time: 00:06:01
(UTC+06:00)

ISS - Pass Details

Date: 19 May 2021
Orbit: 417 x 422 km, 51.6° (Epoch: 16 June)

Event Time Altitude Azimuth Distance (km) Brightness Sun altitude
Rises 23:04:10 0° 270° (W) 2,368 0.3 -15.0°
Reaches altitude 10° 23:06:17 10° 266° (W) 1,504 -0.8 -15.1°
Maximum altitude 23:09:36 58° 187° (S) 498 -3.8 -15.3°
Enters shadow 23:11:33 22° 114° (ESE) 973 -2.3 -15.3°
